Retour au catalogue

STARLINK-36664

ActifCommunicationsVLEO
NORAD 68965·PAYLOAD·🇺🇸 United States

Lancé May 1, 2026 depuis Cape Canaveral Space Force Station

Loading…

Prochains Passages (prochaines 24 heures)

TLE

FraisSource: CelesTrak SupGP

Époque: Sep 15, 2026, 03:37 UTC

1 68965C 26099Q   26258.15118056 -.00012102  00000+0 -35758-3 0  2586
2 68965  53.1571 100.7309 0001232  84.2800 289.2819 15.34394799    12

Suivez STARLINK-36664 en temps réel avec AllMySat

Download on the App Store